Other Public Products
Issued by NWS Charleston, SC

Current Version | Previous Version | Graphics & Text | Print | Product List | Glossary On
Versions: 1 2 3 4 5 6 7 8 9 10 11 12 13 14 15 16 17 18 19 20 21 22 23 24 25 26 27 28 29 30 31 32 33 34 35 36 37 38 39 40 41 42 43 44 45 46 47 48 49 50
000
FPUS82 KCHS 211643
OPUCHS

TEST...KCHS/KSAV Gateway Observations...TEST
National Weather Service Charleston SC
1200 PM EDT THU SEP 21 2017

NOTE: "fair" indicates few or no clouds below 12,000 feet with no
significant weather and/or obstructions to visibility.

SCZ050-WAZ558-NCZ071-TXZ119-213-PAZ071-DCZ001-FLZ074-172-MI076-
NYZ176-178-MAZ016-IL014-TNZ027-NJZ106-GAZ044-MD014-211700-

...Gateway Observations for Charleston International...

CITY           SKY/WX    TMP DP  RH WIND       PRES   REMARKS
Chas Airport   MOSUNNY   92  73  53 N3        30.04F HX 100
Seattle        LGT RAIN  52  49  89 SW5       29.92R
Charlotte      MOSUNNY   86  68  54 NE8       30.09F
Dallas DFW     PTSUNNY   87  73  62 S18       29.95S HX  94
Dallas Love    PTSUNNY   85  72  65 S12G17    29.97S HX  91
Philladelphia  MOSUNNY   84  63  49 N8        30.03S
Wash National  MOSUNNY   84  65  52 CALM      30.05F
Baltimore      PTSUNNY   82  64  54 N8        30.04S
Miami          PTSUNNY   90  73  57 VRB3      29.97S HX  98
Detroit        MOSUNNY   82  72  71 S5        30.09S
Newark         CLOUDY    80  63  55 N16       30.01F
Laguardia      CLOUDY    79  64  60 N13       30.00F
J F K          CLOUDY    79  63  57 N13       30.01S
Boston Logan   CLOUDY    68  52  56 N29G39    30.02S
Ft. Lauderdale PTSUNNY   90  77  65 NE12      29.96F HX 103
Chicago O`Hare CLOUDY    87  65  47 SE5       30.02F
Chicago Midway PTSUNNY   87  67  51 S6        30.02F HX  90
Houston Bush   CLOUDY    82  77  84 E7        29.99S HX  90
Houston Hobby  PTSUNNY   88  76  67 SE13      29.97F HX  99
Nashville      PTSUNNY   86  72  62 VRB5      30.12R HX  92
Atlanta        MOSUNNY   85  65  51 S3        30.10S

$$

GAZ044-118-TXZ119-213-NCZ071-DCZ001-MDZ014-506-PAZ021-071-NJZ106-
NYZ176-178-MAZ106-OHZ011-021-055-MIZ076-KYZ091-ILZ014-INZ047-
MNZ060-ONZ431-211700-

...Gateway Observations for Savannah International...

CITY           SKY/WX    TMP DP  RH WIND       PRES   REMARKS
Savannah Arpt  PTSUNNY   88  69  53 S5        30.05F HX  92
Atlanta        MOSUNNY   85  65  51 S3        30.10S
Charlotte      MOSUNNY   86  68  54 NE8       30.09F
Dallas DFW     PTSUNNY   87  73  62 S18       29.95S HX  94
Houston Bush   CLOUDY    82  77  84 E7        29.99S HX  90
Wash National  MOSUNNY   84  65  52 CALM      30.05F
Wash Dulles    MOSUNNY   81  64  56 CALM      30.07S
Baltimore      PTSUNNY   82  64  54 N8        30.04S
Philadelphia   MOSUNNY   84  63  49 N8        30.03S
Newark         CLOUDY    80  63  55 N16       30.01F
Laguardia      CLOUDY    79  64  60 N13       30.00F
J F K          CLOUDY    79  63  57 N13       30.01S
Boston         CLOUDY    68  52  56 N29G39    30.02S
Pittsburg      MOSUNNY   80  65  59 S3        30.13S
Akron          MOSUNNY   83  65  54 CALM      30.13F
Cleveland      MOSUNNY   88  64  44 NW5       30.12S
Cincinnati     MOSUNNY   84  73  69 W5        30.12S HX  90
Columbus       MOSUNNY   81  68  64 CALM      30.11S
Detroit        MOSUNNY   82  72  71 S5        30.09S
Chicago O`Hare CLOUDY    87  65  47 SE5       30.02F
Minneapolis    SUNNY     69  57  65 SE14      29.96F
Indianapolis   MOSUNNY   85  71  63 SW7       30.09F HX  90
Toronto Canada MOSUNNY   77  63  61 SE10      30.13S

$$




USA.gov is the U.S. government's official web portal to all federal, state and local government web resources and services.